TimeHDT,TemperatureF,Dew PointF,Humidity,Sea Level PressureIn,VisibilityMPH,Wind Direction,Wind SpeedMPH,Gust SpeedMPH,PrecipitationIn,Events,Conditions,WindDirDegrees,DateUTC
12:16 AM,37.4,30.2,75,30.07,-9999.0,SE,9.2,-,N/A,,Overcast,140,2013-03-21 09:16:00
12:36 AM,37.4,30.2,75,30.06,-9999.0,SE,9.2,-,N/A,,Overcast,130,2013-03-21 09:36:00
12:56 AM,37.4,30.2,75,30.06,-9999.0,SSE,9.2,-,N/A,,Overcast,150,2013-03-21 09:56:00
1:16 AM,37.4,30.2,75,30.05,-9999.0,SE,6.9,-,N/A,,Overcast,140,2013-03-21 10:16:00
1:36 AM,37.4,30.2,75,30.05,-9999.0,SSE,4.6,-,N/A,,Overcast,150,2013-03-21 10:36:00
1:56 AM,37.4,30.2,75,30.04,-9999.0,SSE,8.1,-,N/A,,Overcast,160,2013-03-21 10:56:00
2:16 AM,37.4,30.2,75,30.05,-9999.0,SE,5.8,-,N/A,,Overcast,140,2013-03-21 11:16:00
2:36 AM,37.4,30.2,75,30.04,-9999.0,South,3.5,-,N/A,,Overcast,180,2013-03-21 11:36:00
2:56 AM,37.4,30.2,75,30.03,-9999.0,SSE,5.8,-,N/A,,Overcast,160,2013-03-21 11:56:00
3:16 AM,37.4,30.2,75,30.03,-9999.0,Calm,Calm,-,N/A,,Overcast,0,2013-03-21 12:16:00
3:36 AM,37.4,32.0,81,30.03,-9999.0,Calm,Calm,-,N/A,,Overcast,0,2013-03-21 12:36:00
3:56 AM,35.6,30.2,81,30.03,-9999.0,Calm,Calm,-,N/A,,Overcast,0,2013-03-21 12:56:00
4:16 AM,35.6,32.0,87,30.03,-9999.0,Calm,Calm,-,N/A,,Overcast,0,2013-03-21 13:16:00
4:36 AM,37.4,33.8,87,30.01,-9999.0,Calm,Calm,-,N/A,,Overcast,0,2013-03-21 13:36:00
4:56 AM,37.4,33.8,87,30.00,-9999.0,ESE,8.1,-,N/A,,Overcast,110,2013-03-21 13:56:00
5:16 AM,37.4,33.8,87,29.99,-9999.0,ESE,4.6,-,N/A,,Overcast,110,2013-03-21 14:16:00
5:36 AM,37.4,33.8,87,29.99,-9999.0,SSE,4.6,-,N/A,,Overcast,160,2013-03-21 14:36:00
5:56 AM,37.4,33.8,87,30.00,-9999.0,Calm,Calm,-,N/A,,Overcast,0,2013-03-21 14:56:00
6:16 AM,37.4,33.8,87,30.00,-9999.0,SSE,4.6,-,N/A,,Overcast,150,2013-03-21 15:16:00
6:36 AM,37.4,33.8,87,29.99,-9999.0,SE,5.8,-,N/A,,Overcast,130,2013-03-21 15:36:00
6:56 AM,37.4,33.8,87,29.98,-9999.0,ESE,4.6,-,N/A,,Overcast,110,2013-03-21 15:56:00
7:16 AM,37.4,35.6,93,29.98,-9999.0,ESE,3.5,-,N/A,,Overcast,110,2013-03-21 16:16:00
7:36 AM,37.4,33.8,87,29.99,-9999.0,South,5.8,-,N/A,,Overcast,170,2013-03-21 16:36:00
7:56 AM,37.4,33.8,87,29.99,-9999.0,SSE,5.8,-,N/A,,Overcast,160,2013-03-21 16:56:00
8:16 AM,37.4,33.8,87,29.98,-9999.0,Calm,Calm,-,N/A,,Overcast,0,2013-03-21 17:16:00
8:36 AM,37.4,33.8,87,29.98,-9999.0,SSE,5.8,-,N/A,,Overcast,150,2013-03-21 17:36:00
8:56 AM,37.4,33.8,87,29.98,-9999.0,SSE,5.8,-,N/A,,Overcast,150,2013-03-21 17:56:00
9:16 AM,37.4,33.8,87,29.98,-9999.0,South,6.9,-,N/A,,Overcast,170,2013-03-21 18:16:00
9:36 AM,37.4,33.8,87,29.98,-9999.0,SSE,8.1,-,N/A,,Overcast,160,2013-03-21 18:36:00
9:56 AM,37.4,33.8,87,29.98,-9999.0,SSE,5.8,-,N/A,,Overcast,150,2013-03-21 18:56:00
10:16 AM,37.4,33.8,87,29.98,-9999.0,South,5.8,-,N/A,,Overcast,170,2013-03-21 19:16:00
10:36 AM,37.4,33.8,87,29.98,-9999.0,SSE,6.9,-,N/A,,Overcast,160,2013-03-21 19:36:00
10:56 AM,37.4,33.8,87,29.98,-9999.0,SE,4.6,-,N/A,,Overcast,140,2013-03-21 19:56:00
11:16 AM,37.4,35.6,93,29.98,-9999.0,South,5.8,-,N/A,,Overcast,170,2013-03-21 20:16:00
11:36 AM,37.4,35.6,93,29.97,-9999.0,SE,6.9,-,N/A,,Overcast,130,2013-03-21 20:36:00
11:56 AM,37.4,35.6,93,-9999,-9999.0,North,-9999.0,-,N/A,,Overcast,0,2013-03-21 20:56:00
12:16 PM,39.2,35.6,87,29.97,-9999.0,SSE,5.8,-,N/A,,Overcast,150,2013-03-21 21:16:00
12:36 PM,39.2,35.6,87,29.96,-9999.0,SSE,8.1,-,N/A,,Overcast,150,2013-03-21 21:36:00
12:56 PM,39.2,35.6,87,29.96,-9999.0,SSE,9.2,-,N/A,,Overcast,150,2013-03-21 21:56:00
1:16 PM,39.2,35.6,87,29.96,-9999.0,SE,8.1,-,N/A,,Overcast,140,2013-03-21 22:16:00
1:36 PM,39.2,35.6,87,29.95,-9999.0,SSE,9.2,-,N/A,,Overcast,150,2013-03-21 22:36:00
1:56 PM,39.2,35.6,87,29.95,-9999.0,South,11.5,-,N/A,,Overcast,170,2013-03-21 22:56:00
2:16 PM,39.2,35.6,87,29.95,-9999.0,South,12.7,-,N/A,,Overcast,180,2013-03-21 23:16:00
2:36 PM,39.2,35.6,87,29.95,-9999.0,South,11.5,-,N/A,,Overcast,170,2013-03-21 23:36:00
2:56 PM,39.2,35.6,87,29.94,-9999.0,South,8.1,-,N/A,,Overcast,170,2013-03-21 23:56:00
3:16 PM,39.2,35.6,87,29.94,-9999.0,SSE,10.4,-,N/A,,Overcast,160,2013-03-22 00:16:00
3:36 PM,39.2,33.8,81,29.95,-9999.0,South,10.4,-,N/A,,Overcast,170,2013-03-22 00:36:00
3:56 PM,39.2,35.6,87,29.95,-9999.0,South,13.8,-,N/A,,Overcast,170,2013-03-22 00:56:00
4:16 PM,39.2,35.6,87,29.94,-9999.0,South,11.5,-,N/A,,Unknown,170,2013-03-22 01:16:00
4:36 PM,39.2,33.8,81,29.93,-9999.0,South,11.5,-,N/A,,Overcast,170,2013-03-22 01:36:00
4:56 PM,39.2,33.8,81,29.93,-9999.0,South,9.2,-,N/A,,Overcast,170,2013-03-22 01:56:00
5:16 PM,39.2,33.8,81,29.92,-9999.0,SE,11.5,-,N/A,,Overcast,130,2013-03-22 02:16:00
5:36 PM,39.2,33.8,81,29.92,-9999.0,SSE,8.1,-,N/A,,Overcast,160,2013-03-22 02:36:00
5:56 PM,39.2,33.8,81,29.92,-9999.0,South,3.5,-,N/A,,Overcast,180,2013-03-22 02:56:00
6:16 PM,39.2,33.8,81,29.92,-9999.0,SSE,8.1,-,N/A,,Overcast,150,2013-03-22 03:16:00
6:36 PM,39.2,33.8,81,29.92,-9999.0,SSE,11.5,-,N/A,,Overcast,160,2013-03-22 03:36:00
6:56 PM,37.4,35.6,93,29.91,-9999.0,SE,8.1,-,N/A,,Overcast,140,2013-03-22 03:56:00
7:16 PM,37.4,33.8,87,29.90,-9999.0,ESE,6.9,-,N/A,,Overcast,110,2013-03-22 04:16:00
7:36 PM,37.4,33.8,87,29.90,-9999.0,SE,9.2,-,N/A,,Overcast,130,2013-03-22 04:36:00
7:56 PM,37.4,35.6,93,29.90,-9999.0,SE,6.9,-,N/A,,Overcast,130,2013-03-22 04:56:00
8:16 PM,37.4,33.8,87,29.90,-9999.0,ESE,8.1,-,N/A,,Overcast,120,2013-03-22 05:16:00
8:36 PM,37.4,35.6,93,29.90,-9999.0,ESE,5.8,-,N/A,,Overcast,120,2013-03-22 05:36:00
8:56 PM,37.4,35.6,93,29.89,-9999.0,ESE,10.4,-,N/A,,Overcast,110,2013-03-22 05:56:00
9:16 PM,37.4,33.8,87,29.90,-9999.0,ESE,9.2,-,N/A,,Overcast,120,2013-03-22 06:16:00
9:36 PM,37.4,35.6,93,29.90,-9999.0,ESE,10.4,-,N/A,,Overcast,110,2013-03-22 06:36:00
9:56 PM,37.4,35.6,93,29.90,-9999.0,ESE,10.4,-,N/A,,Overcast,120,2013-03-22 06:56:00
10:16 PM,37.4,35.6,93,29.90,-9999.0,SSE,15.0,20.7,N/A,,Unknown,160,2013-03-22 07:16:00
10:36 PM,37.4,35.6,93,29.90,-9999.0,SSE,10.4,-,N/A,,Unknown,150,2013-03-22 07:36:00
10:56 PM,37.4,35.6,93,29.89,-9999.0,ESE,11.5,-,N/A,,Overcast,120,2013-03-22 07:56:00
11:16 PM,37.4,35.6,93,29.88,-9999.0,ESE,15.0,-,N/A,,Overcast,120,2013-03-22 08:16:00
11:36 PM,37.4,35.6,93,29.88,-9999.0,ESE,13.8,-,N/A,,Overcast,120,2013-03-22 08:36:00
11:56 PM,37.4,35.6,93,29.87,-9999.0,ESE,15.0,19.6,N/A,,Overcast,120,2013-03-22 08:56:00